map of DLM home
Great Circle Mapper logo
DLM - Airport
Location
City:  Dalaman, Turkey
ICAO / IATA:LTBS / DLM

Details
Type:Airport (Aerodrome, Airfield)
Use:Public/Civil, International (customs port of entry)
Latitude:3642'47"N (36.713056)
Longitude:2847'33"E (28.792500)
Datum:WGS 1984
Elevation:20 ft (6 m)
Variation:4.5E (WMM2010 magnetic declination)
Runways:1
Longest:9842 × 148 ft (3000 × 45 m), paved

Time
Time Zone:UTC+2 (DST+3)
Local Time:

Weather
METAR:LTBS 281720Z 07004KT 9999 FEW030 BKN120 13/08 Q1024 NOSIG
TAF:LTBS 272240Z 2800/2824 VRB02KT CAVOK
BECMG 2806/2808 SCT030
BECMG 2814/2816 CAVOK

Related Locations
Nearby:
Farthest:NTAV: 11522 mi / 18543 km
Raivavae, Tubuai Islands, Austral Islands, PF

Find:

   beyond  
but within

Other Information
Maps:
NOTAMs:
Links:
Sources:

  
flag of Turkey   

Sectional Chart

Flight Planning
at skyvector.com

Satellite Image

Google Maps Satellite View

 

Copyright © 2004-2014 Karl L. Swartz. All rights reserved.
The Great Circle Mapper name and logo are trademarks of the Great Circle Mapper.
All other trademarks mentioned herein belong to their respective owners.
Please see credits for attibutions and further copyright information.

  Follow gcmap on Facebook Follow gcmap on Twitter

hCard Microformat

Geo Microformat